Location: Newark
(25.5428°S, 54.5819°W)
Time: 05:05:59
(UTC+00:00)

OTV 5 (USA 277) - Visible Passes

Search period start: 24 July 2019 00:00
Search period end: 03 August 2019 00:00
Orbit: 299 x 335 km, 54.5° (Epoch: 13 July)

Date Brightness Start Highest point End Pass type
(mag) Time Alt. Az. Time Alt. Az. Time Alt. Az.
24 Jul ? 22:25:04 10° NNW 22:27:42 66° NNE 22:27:42 66° NNE visible
25 Jul ? 22:40:00 10° WNW 22:42:25 26° SW 22:42:32 26° SW visible
27 Jul ? 21:34:31 10° NW 21:37:16 53° SW 21:40:01 10° SSE visible
28 Jul ? 21:50:11 10° W 21:51:56 15° SW 21:53:41 10° S visible
